Location: Rounton
(54.4000°N, 1.3500°W)
Time: 07:59:58
(UTC+00:00)

Tiros 1 despin weight - Pass Details

Date: 05 December 2021
Orbit: 592 x 641 km, 48.2° (Epoch: 19 January)

Event Time Altitude Azimuth Distance (km) Brightness Sun altitude
Rises 13:55:56 0° 234° (SW) 2,831 ? 9.0°
Reaches altitude 10° 13:58:26 10° 223° (SW) 1,926 ? 8.8°
Maximum altitude 14:02:14 29° 163° (SSE) 1,095 ? 8.5°
Drops below altitude 10° 14:06:03 10° 103° (ESE) 1,923 ? 8.3°
Sets 14:08:32 0° 92° (E) 2,826 ? 8.1°
